This demonstration page uses our WeatherBlox Daily Observations layout. Learn more.

Hourly Observations for March 5, 2016

Temp ( °F °C ) Dew Point ( °F °C ) Humidity (%) Winds ( mph kmh ) Pressure ( in mb ) Visibility ( mi km ) Precip ( " mm )
12:15 am 00:15 Cloudy 37 3 28 -2 70 70 NW 5 7 30.21 1023 10 16.09344 0 0
12:35 am 00:35 Cloudy 37 3 28 -2 70 70 NNW 6 9 30.21 1023 10 16.09344 0 0
12:55 am 00:55 Cloudy 37 3 28 -2 70 70 N 5 7 30.21 1023 10 16.09344 0 0
1:15 am 01:15 Cloudy 37 3 28 -2 70 70 NNW 6 9 30.21 1023 10 16.09344 0 0
1:35 am 01:35 Cloudy 36 2 30 -1 81 81 NW 3 6 30.21 1023 10 16.09344 0 0
1:55 am 01:55 Cloudy 36 2 30 -1 81 81 WNW 3 6 30.21 1023 10 16.09344 0 0
2:15 am 02:15 Cloudy 37 3 30 -1 75 75 WNW 6 9 30.21 1023 10 16.09344 0 0
2:35 am 02:35 Cloudy 37 3 30 -1 75 75 WNW 6 9 30.21 1023 10 16.09344 0 0
2:55 am 02:55 Cloudy 36 2 30 -1 81 81 NW 6 9 30.21 1023 10 16.09344 0 0
3:15 am 03:15 Cloudy 36 2 30 -1 81 81 NW 7 11 30.21 1023 10 16.09344 0 0
3:35 am 03:35 Cloudy 36 2 28 -2 75 75 NNW 5 7 30.21 1023 10 16.09344 0 0
3:55 am 03:55 Cloudy 36 2 28 -2 75 75 NNW 5 7 30.21 1023 10 16.09344 0 0
4:15 am 04:15 Cloudy 36 2 28 -2 75 75 N 6 9 30.24 1024 10 16.09344 0 0
4:35 am 04:35 Cloudy 36 2 28 -2 75 75 N 6 9 30.24 1024 10 16.09344 0 0
4:55 am 04:55 Cloudy 36 2 28 -2 75 75 N 5 7 30.24 1024 10 16.09344 0 0
5:15 am 05:15 Cloudy 36 2 27 -3 70 70 N 7 11 30.24 1024 10 16.09344 0 0
5:35 am 05:35 Cloudy 36 2 27 -3 70 70 N 5 7 30.24 1024 10 16.09344 0 0
5:55 am 05:55 Cloudy 36 2 27 -3 70 70 N 7 11 30.24 1024 10 16.09344 0 0
6:15 am 06:15 Cloudy 36 2 27 -3 70 70 N 5 7 30.24 1024 10 16.09344 0 0
6:35 am 06:35 Cloudy 36 2 27 -3 70 70 N 7 11 30.24 1024 10 16.09344 0 0
6:55 am 06:55 Cloudy 36 2 27 -3 70 70 N 6 9 30.24 1024 10 16.09344 0 0
7:15 am 07:15 Cloudy 36 2 27 -3 70 70 NNE 3 6 30.27 1025 10 16.09344 0 0
7:35 am 07:35 Cloudy 36 2 27 -3 70 70 NNE 5 7 30.27 1025 10 16.09344 0 0
7:55 am 07:55 Cloudy 36 2 27 -3 70 70 N 7 11 30.27 1025 10 16.09344 0 0
8:15 am 08:15 Cloudy 37 3 27 -3 65 65 N 3 6 30.27 1025 10 16.09344 0 0
8:35 am 08:35 Cloudy 37 3 27 -3 65 65 NNE 5 7 30.27 1025 10 16.09344 0 0
8:55 am 08:55 Cloudy 37 3 27 -3 65 65 Calm 30.27 1025 10 16.09344 0 0
9:15 am 09:15 Partly Cloudy 37 3 27 -3 65 65 Calm 30.27 1025 10 16.09344 0 0
9:35 am 09:35 Mostly Cloudy 37 3 27 -3 65 65 ENE 3 6 30.27 1025 10 16.09344 0 0
9:55 am 09:55 Mostly Cloudy 37 3 27 -3 65 65 Calm 30.27 1025 10 16.09344 0 0
10:15 am 10:15 Cloudy 39 4 27 -3 61 61 Calm 30.27 1025 10 16.09344 0 0
10:35 am 10:35 Mostly Cloudy 39 4 27 -3 61 61 Calm 30.24 1024 10 16.09344 0 0
10:55 am 10:55 Mostly Cloudy 39 4 28 -2 65 65 Calm 30.24 1024 10 16.09344 0 0
11:15 am 11:15 Mostly Cloudy 41 5 28 -2 61 61 N 5 7 30.24 1024 10 16.09344 0 0
11:35 am 11:35 Mostly Cloudy 41 5 28 -2 61 61 Calm 30.24 1024 10 16.09344 0 0
11:55 am 11:55 Cloudy 43 6 28 -2 57 57 SSW 5 7 30.24 1024 10 16.09344 0 0
12:15 pm 12:15 Cloudy 43 6 28 -2 57 57 SSW 3 6 30.21 1023 10 16.09344 0 0
12:35 pm 12:35 Cloudy 45 7 30 -1 57 57 SSW 5 7 30.21 1023 10 16.09344 0 0
12:55 pm 12:55 Cloudy 45 7 28 -2 53 53 Calm 30.21 1023 10 16.09344 0 0
1:15 pm 13:15 Cloudy 43 6 28 -2 57 57 WSW 5 7 30.18 1022 10 16.09344 0 0
1:35 pm 13:35 Cloudy 45 7 30 -1 57 57 Calm 30.18 1022 10 16.09344 0 0
1:55 pm 13:55 Cloudy 45 7 30 -1 57 57 S 5 7 30.18 1022 10 16.09344 0 0
2:15 pm 14:15 Cloudy 45 7 30 -1 57 57 S 7 11 30.18 1022 10 16.09344 0 0
2:35 pm 14:35 Cloudy 45 7 30 -1 57 57 S 8 13 30.18 1022 10 16.09344 0 0
2:55 pm 14:55 Cloudy 45 7 30 -1 57 57 SSW 8 13 30.15 1021 10 16.09344 0 0
3:15 pm 15:15 Cloudy 45 7 30 -1 57 57 SSE 8 13 30.15 1021 10 16.09344 0 0
3:35 pm 15:35 Cloudy 45 7 32 0 61 61 S 6 9 30.15 1021 10 16.09344 0 0
3:55 pm 15:55 Cloudy 45 7 32 0 61 61 S 9 15 30.15 1021 10 16.09344 0 0
4:15 pm 16:15 Cloudy 45 7 32 0 61 61 S 8 13 30.15 1021 10 16.09344 0 0
4:35 pm 16:35 Cloudy 45 7 32 0 61 61 S 7 11 30.15 1021 10 16.09344 0 0
4:55 pm 16:55 Cloudy 45 7 32 0 61 61 S 6 9 30.15 1021 10 16.09344 0 0
5:15 pm 17:15 Cloudy 45 7 32 0 61 61 SSE 8 13 30.15 1021 10 16.09344 0 0
5:35 pm 17:35 Mostly Cloudy 45 7 32 0 61 61 S 8 13 30.15 1021 10 16.09344 0 0
5:55 pm 17:55 Mostly Cloudy 43 6 32 0 66 66 S 7 11 30.18 1022 10 16.09344 0 0
6:15 pm 18:15 Cloudy 43 6 32 0 66 66 S 7 11 30.18 1022 10 16.09344 0 0
6:35 pm 18:35 Cloudy 43 6 32 0 66 66 S 6 9 30.18 1022 10 16.09344 0 0
6:55 pm 18:55 Cloudy 43 6 32 0 66 66 SSE 5 7 30.18 1022 10 16.09344 0 0
7:15 pm 19:15 Mostly Cloudy 43 6 32 0 66 66 SSE 5 7 30.18 1022 10 16.09344 0 0
7:35 pm 19:35 Partly Cloudy 41 5 32 0 70 70 SE 3 6 30.18 1022 10 16.09344 0 0
7:55 pm 19:55 Mostly Cloudy 41 5 32 0 70 70 SSE 3 6 30.18 1022 10 16.09344 0 0
8:15 pm 20:15 Partly Cloudy 41 5 32 0 70 70 SE 6 9 30.18 1022 10 16.09344 0 0
8:35 pm 20:35 Partly Cloudy 41 5 32 0 70 70 SSE 6 9 30.18 1022 10 16.09344 0 0
8:55 pm 20:55 Mostly Cloudy 41 5 32 0 70 70 SSE 6 9 30.21 1023 10 16.09344 0 0
9:15 pm 21:15 Cloudy 39 4 32 0 75 75 S 6 9 30.21 1023 10 16.09344 0 0
9:35 pm 21:35 Cloudy 41 5 32 0 70 70 SSE 6 9 30.21 1023 10 16.09344 0 0
9:55 pm 21:55 Cloudy 39 4 32 0 75 75 SSE 3 6 30.21 1023 10 16.09344 0 0
10:15 pm 22:15 Cloudy 39 4 32 0 75 75 SE 5 7 30.21 1023 10 16.09344 0 0
10:35 pm 22:35 Cloudy 39 4 32 0 75 75 SSE 5 7 30.21 1023 10 16.09344 0 0
10:55 pm 22:55 Cloudy 39 4 32 0 75 75 SSE 3 6 30.21 1023 10 16.09344 0 0
11:15 pm 23:15 Cloudy 39 4 32 0 75 75 SSE 3 6 30.21 1023 10 16.09344 0 0
11:35 pm 23:35 Cloudy 37 3 32 0 81 81 S 3 6 30.21 1023 10 16.09344 0 0
11:55 pm 23:55 Cloudy 37 3 32 0 81 81 SSW 3 6 30.21 1023 10 16.09344 0 0

Powered by AerisWeather